Regional Weather Roundup
Issued by NWS Huntsville, AL

Home | Current Version | Previous Version | Text Only | Print | Product List | Glossary On
Versions: 1 2 3 4 5 6 7 8 9 10 11 12 13 14 15 16 17 18 19 20 21 22 23 24 25 26 27 28 29 30 31 32 33 34 35 36 37 38 39 40 41 42 43 44 45 46 47 48 49 50
000
ASUS44 KHUN 010200
RWRHUN

WEATHER ROUNDUP FOR THE TENNESSEE VALLEY
NATIONAL WEATHER SERVICE HUNTSVILLE AL
900 PM CDT THU JUL 31 2014

ALZ001>004-010300-
NORTHWEST ALABAMA

CITY           SKY/WX    TMP DP  RH WIND       PRES   REMARKS
COURTLAND HCN    N/A     70 N/A N/A CALM        N/A
RUSSELLVILLE     N/A     68 N/A N/A MISG        N/A
SHOALS AIRPORT PTCLDY    73  63  70 CALM      30.06S
$$

ALZ005>007-016-010300-
NORTH CENTRAL ALABAMA

CITY           SKY/WX    TMP DP  RH WIND       PRES   REMARKS
CULLMAN AG STN   N/A     66 N/A N/A CALM        N/A
DECATUR AP     PTCLDY    68  65  90 NE5       30.05S
HUNTSVILLE AP  PTCLDY    73  62  68 SE5       30.05S
HUN NWS/UAH      N/A     76  60  58 NE1         N/A
$$

ALZ008>010-010300-
NORTHEAST ALABAMA

CITY           SKY/WX    TMP DP  RH WIND       PRES   REMARKS
FORT PAYNE     NOT AVBL
SCOTTSBORO AP    N/A     70  68  94 CALM      30.07S
SCOTTSBORO HCN   N/A     70 N/A N/A MISG        N/A
VALLEY HEAD      N/A     68 N/A N/A MISG        N/A
$$

TNZ076-096-097-010300-
SOUTHEASTERN MIDDLE TENNESSEE

CITY           SKY/WX    TMP DP  RH WIND       PRES   REMARKS
TULLAHOMA      NOT AVBL
WINCHESTER     CLEAR     70  63  78 CALM      30.09R
$$

...SURROUNDING SITES...

CITY           SKY/WX    TMP DP  RH WIND       PRES   REMARKS
ATLANTA        LGT RAIN  70  67  90 NE12      30.08R
ANNISTON       CLOUDY    75  66  73 E5        30.06R
BIRMINGHAM     MOCLDY    75  64  68 NE3       30.06S
CHATTANOOGA    MOCLDY    73  65  75 CALM      30.08R
DALTON         NOT AVBL
GADSDEN        MOCLDY    73  66  78 CALM      30.05S
GOLDEN TRNGL   MOCLDY    73  63  68 CALM      30.04F
JACKSON TN     CLOUDY    71  65  81 CALM      30.05S
MEMPHIS        CLOUDY    74  65  73 N5        30.06R
NASHVILLE      MOCLDY    74  61  63 SW3       30.06S
ROME           CLOUDY    73  66  78 CALM      30.08R
SAVANNAH       MOCLDY    70  70 100 CALM      30.06S
TUPELO         MOCLDY    74  65  73 NE3       30.04S
TUSCALOOSA     MOCLDY    72  61  68 CALM      30.03R
$$

...GULF COAST WEATHER...

CITY           SKY/WX    TMP DP  RH WIND       PRES   REMARKS
GULFPORT       MOCLDY    80  69  69 CALM      29.98S
PASCAGOULA     PTCLDY    72  68  87 NW3       29.99S
DESTIN         PTCLDY    82  66  58 CALM      29.99R
APPALACHICOLA  CLEAR     71  65  81 NW3       29.98S
$$




USA.gov is the U.S. government's official web portal to all federal, state and local government web resources and services.